Location: Christianberg
(48.9086°N, 14.0209°E)
Time: 07:34:56
(UTC+00:00)

FENGYUN 1C DEB - Visible Passes

Search period start: 29 January 2022 00:00
Search period end: 08 February 2022 00:00
Orbit: 833 x 1171 km, 98.6° (Epoch: 29 November)

Date Brightness Start Highest point End Pass type
(mag) Time Alt. Az. Time Alt. Az. Time Alt. Az.
29 Jan ? 17:04:23 10° N 17:10:04 61° WNW 17:16:13 10° SSW visible
29 Jan ? 18:50:27 10° NNW 18:52:57 13° NW 18:55:31 10° WNW visible
30 Jan ? 17:37:17 10° N 17:42:32 37° WNW 17:48:09 10° SW visible
31 Jan ? 16:25:35 10° NNE 16:31:28 75° ESE 16:37:50 10° S visible
31 Jan ? 18:10:25 10° N 18:14:51 23° WNW 18:19:32 10° WSW visible
01 Feb ? 16:58:15 10° N 17:04:05 67° WNW 17:10:23 10° SSW visible
01 Feb ? 18:44:01 10° NNW 18:47:01 14° NW 18:50:07 10° W visible
02 Feb ? 17:31:06 10° N 17:36:33 40° WNW 17:42:25 10° SW visible
03 Feb ? 18:04:10 10° N 18:08:53 25° WNW 18:13:53 10° WSW visible
04 Feb?02:41:11N02:41:11N02:27:43SEvisible
04 Feb ? 16:52:06 10° N 16:58:04 72° WNW 17:04:33 10° SSW visible
04 Feb ? 18:37:37 10° NNW 18:41:04 16° NW 18:44:38 10° W visible
05 Feb?03:13:49NNW03:13:49NNW03:00:44SSEvisible
05 Feb ? 17:24:55 10° N 17:30:34 44° WNW 17:36:39 10° SW visible
06 Feb?03:46:26NNW03:46:26NNW03:33:44Svisible
06 Feb ? 17:57:55 10° N 18:02:55 28° WNW 18:08:13 10° WSW visible
07 Feb?02:33:50N02:33:50N02:21:33SEvisible
07 Feb?04:19:01NNW04:19:01NNW04:06:46SSWvisible
07 Feb ? 16:45:56 10° NNE 16:52:04 78° WNW 16:58:41 10° SSW visible
07 Feb ? 18:31:16 10° NNW 18:35:07 18° NW 18:39:07 10° W visible
